When you browse on this site, cookies collect data to enhance your experience and personalize the content and advertising you see.
Visit our Privacy Policy to learn more. By continuing to use the site, you agree to this use of cookies and data.
  • In Denmark
  • List of Countries
  • For 7 days
  • Water Temperature
  • Weather Map
  • Weather Widgets
  • user-avatar
    Login

    Hourly Weather Montana

    Today, 26 February, Wednesday

    Time Temperature Precipitation Wind Pressure Humidity
    00:00 +9°C° 0 mm 2 mps 728 mmHg 68%
    01:00 +9°C° 0 mm 2 mps 728 mmHg 70%
    02:00 +9°C° 0 mm 2 mps 727 mmHg 71%
    03:00 +8°C° 0 mm 2 mps 727 mmHg 73%
    04:00 +8°C° 0 mm 2 mps 726 mmHg 75%
    05:00 +8°C° 0 mm 2 mps 726 mmHg 76%
    06:00 +8°C° 0 mm 2 mps 725 mmHg 76%
    07:00 +8°C° 0 mm 2 mps 725 mmHg 76%
    08:00 +8°C° 0 mm 2 mps 725 mmHg 77%
    09:00 +10°C° 0 mm 2 mps 725 mmHg 68%
    10:00 +13°C° 0 mm 2 mps 724 mmHg 59%
    11:00 +15°C° 0 mm 2 mps 724 mmHg 50%
    12:00 +17°C° 0 mm 3 mps 723 mmHg 46%
    13:00 +18°C° 0 mm 4 mps 723 mmHg 42%
    14:00 +19°C° 0 mm 4 mps 722 mmHg 37%
    15:00 +18°C° 0 mm 3 mps 721 mmHg 41%
    16:00 +17°C° 0 mm 3 mps 721 mmHg 45%
    17:00 +16°C° 0 mm 2 mps 720 mmHg 49%
    18:00 +14°C° 0 mm 3 mps 721 mmHg 53%
    19:00 +13°C° 0 mm 3 mps 721 mmHg 56%
    20:00 +12°C° 0 mm 4 mps 721 mmHg 60%
    21:00 +11°C° 0 mm 4 mps 721 mmHg 62%
    22:00 +11°C° 0 mm 4 mps 721 mmHg 64%
    23:00 +11°C° 0 mm 4 mps 721 mmHg 66%

    Tomorrow, 27 February, Thursday

    Time Temperature Precipitation Wind Pressure Humidity
    00:00 +10°C° 0 mm 4 mps 721 mmHg 66%
    01:00 +10°C° 0 mm 4 mps 721 mmHg 67%
    02:00 +8°C° 0 mm 4 mps 721 mmHg 68%
    03:00 +8°C° 0 mm 4 mps 721 mmHg 68%
    04:00 +8°C° 0 mm 4 mps 721 mmHg 68%
    05:00 +7°C° 0 mm 4 mps 720 mmHg 68%
    06:00 +7°C° 0.1 mm 4 mps 721 mmHg 68%
    07:00 +7°C° 0.1 mm 4 mps 721 mmHg 69%
    08:00 +7°C° 0.1 mm 4 mps 722 mmHg 69%
    09:00 +6°C° 0.2 mm 5 mps 722 mmHg 69%
    10:00 +4°C° 0.2 mm 6 mps 723 mmHg 68%
    11:00 +4°C° 0.2 mm 7 mps 724 mmHg 68%
    12:00 +4°C° 0.1 mm 7 mps 724 mmHg 63%
    13:00 +5°C° 0.1 mm 7 mps 725 mmHg 59%
    14:00 +5°C° 0.1 mm 7 mps 725 mmHg 54%
    15:00 +5°C° 0 mm 7 mps 726 mmHg 56%
    16:00 +4°C° 0 mm 7 mps 726 mmHg 57%
    17:00 +4°C° 0 mm 6 mps 727 mmHg 59%
    18:00 +3°C° 0 mm 5 mps 728 mmHg 63%
    19:00 +3°C° 0 mm 4 mps 728 mmHg 67%
    20:00 +3°C° 0 mm 3 mps 729 mmHg 71%
    21:00 +2°C° 0 mm 3 mps 729 mmHg 72%
    22:00 +2°C° 0 mm 3 mps 730 mmHg 73%
    23:00 +2°C° 0 mm 3 mps 730 mmHg 74%

    Day after tomorrow, 28 February, Friday

    Time Temperature Precipitation Wind Pressure Humidity
    00:00 +3°C° 0 mm 2 mps 730 mmHg 75%
    01:00 +2°C° 0 mm 2 mps 730 mmHg 75%
    02:00 +2°C° 0 mm 2 mps 730 mmHg 75%
    03:00 +2°C° 0 mm 2 mps 730 mmHg 73%
    04:00 +1°C° 0 mm 3 mps 730 mmHg 70%
    05:00 +1°C° 0 mm 3 mps 729 mmHg 68%
    06:00 +2°C° 0 mm 3 mps 729 mmHg 64%
    07:00 +2°C° 0 mm 3 mps 729 mmHg 60%
    08:00 +3°C° 0 mm 3 mps 729 mmHg 56%
    09:00 +4°C° 0.1 mm 3 mps 729 mmHg 55%
    10:00 +5°C° 0.1 mm 4 mps 729 mmHg 54%
    11:00 +6°C° 0.1 mm 4 mps 729 mmHg 54%
    12:00 +6°C° 0.4 mm 4 mps 729 mmHg 61%
    13:00 +7°C° 0.4 mm 3 mps 729 mmHg 69%
    14:00 +5°C° 0.4 mm 3 mps 729 mmHg 77%
    15:00 +5°C° 0.4 mm 3 mps 730 mmHg 73%
    16:00 +5°C° 0.4 mm 4 mps 731 mmHg 69%
    17:00 +5°C° 0.4 mm 4 mps 731 mmHg 65%
    18:00 +4°C° 0 mm 4 mps 732 mmHg 68%
    19:00 +3°C° 0 mm 3 mps 733 mmHg 70%
    20:00 +3°C° 0 mm 3 mps 734 mmHg 72%
    21:00 +2°C° 0 mm 3 mps 734 mmHg 72%
    22:00 +2°C° 0 mm 3 mps 734 mmHg 72%
    23:00 +2°C° 0 mm 3 mps 735 mmHg 72%

    29 February, Saturday

    Time Temperature Precipitation Wind Pressure Humidity
    00:00 +1°C° 0 mm 3 mps 735 mmHg 72%
    01:00 +1°C° 0 mm 3 mps 735 mmHg 73%
    02:00 +2°C° 0 mm 2 mps 735 mmHg 73%
    03:00 +2°C° 0 mm 2 mps 735 mmHg 72%
    04:00 +1°C° 0 mm 2 mps 735 mmHg 71%
    05:00 +1°C° 0 mm 2 mps 735 mmHg 71%
    06:00 +1°C° 0 mm 2 mps 735 mmHg 70%
    07:00 +2°C° 0 mm 2 mps 736 mmHg 69%
    08:00 +2°C° 0 mm 2 mps 736 mmHg 69%
    09:00 +4°C° 0 mm 2 mps 736 mmHg 59%
    10:00 +6°C° 0 mm 2 mps 736 mmHg 50%
    11:00 +7°C° 0 mm 2 mps 736 mmHg 40%
    12:00 +9°C° 0 mm 1 mps 735 mmHg 36%
    13:00 +10°C° 0 mm 1 mps 735 mmHg 33%
    14:00 +11°C° 0 mm 1 mps 734 mmHg 29%
    15:00 +11°C° 0 mm 1 mps 734 mmHg 32%
    16:00 +11°C° 0 mm 1 mps 733 mmHg 35%
    17:00 +11°C° 0 mm 1 mps 733 mmHg 37%
    18:00 +10°C° 0 mm 1 mps 733 mmHg 41%
    19:00 +9°C° 0 mm 1 mps 733 mmHg 44%
    20:00 +7°C° 0 mm 2 mps 733 mmHg 48%
    21:00 +7°C° 0 mm 2 mps 733 mmHg 49%
    22:00 +6°C° 0 mm 2 mps 733 mmHg 50%
    23:00 +6°C° 0 mm 2 mps 733 mmHg 51%

    1 March, Sunday

    Time Temperature Precipitation Wind Pressure Humidity
    00:00 +6°C° 0 mm 2 mps 733 mmHg 53%
    01:00 +6°C° 0 mm 2 mps 733 mmHg 54%
    02:00 +6°C° 0 mm 2 mps 733 mmHg 55%
    03:00 +6°C° 0 mm 2 mps 732 mmHg 57%
    04:00 +6°C° 0 mm 2 mps 732 mmHg 58%
    05:00 +6°C° 0 mm 2 mps 732 mmHg 59%
    06:00 +6°C° 0 mm 2 mps 732 mmHg 60%
    07:00 +7°C° 0 mm 1 mps 732 mmHg 62%
    08:00 +7°C° 0 mm 1 mps 732 mmHg 63%
    09:00 +9°C° 0 mm 1 mps 732 mmHg 59%
    10:00 +10°C° 0 mm 1 mps 732 mmHg 56%
    11:00 +12°C° 0 mm 1 mps 732 mmHg 53%
    12:00 +13°C° 0 mm 2 mps 731 mmHg 51%
    13:00 +14°C° 0 mm 2 mps 730 mmHg 50%
    14:00 +15°C° 0 mm 2 mps 730 mmHg 49%
    15:00 +15°C° 0 mm 2 mps 730 mmHg 51%
    16:00 +15°C° 0 mm 2 mps 729 mmHg 53%
    17:00 +15°C° 0 mm 2 mps 729 mmHg 54%
    18:00 +14°C° 0 mm 2 mps 729 mmHg 58%
    19:00 +13°C° 0 mm 2 mps 729 mmHg 61%
    20:00 +12°C° 0 mm 2 mps 729 mmHg 64%
    21:00 +12°C° 0 mm 2 mps 729 mmHg 66%
    22:00 +10°C° 0 mm 2 mps 729 mmHg 67%
    23:00 +10°C° 0 mm 2 mps 729 mmHg 69%

    2 March, Monday

    Time Temperature Precipitation Wind Pressure Humidity
    00:00 +10°C° 0 mm 2 mps 729 mmHg 70%
    01:00 +10°C° 0 mm 2 mps 729 mmHg 72%
    02:00 +10°C° 0 mm 2 mps 729 mmHg 74%
    03:00 +10°C° 0.1 mm 2 mps 729 mmHg 74%
    04:00 +10°C° 0.1 mm 2 mps 729 mmHg 75%
    05:00 +10°C° 0.1 mm 2 mps 729 mmHg 76%
    06:00 +10°C° 0 mm 2 mps 729 mmHg 76%
    07:00 +10°C° 0 mm 2 mps 729 mmHg 75%
    08:00 +10°C° 0 mm 2 mps 729 mmHg 75%
    09:00 +12°C° 0 mm 2 mps 729 mmHg 70%
    10:00 +14°C° 0 mm 2 mps 729 mmHg 64%
    11:00 +14°C° 0 mm 3 mps 729 mmHg 58%
    12:00 +16°C° 0 mm 3 mps 728 mmHg 57%
    13:00 +17°C° 0 mm 4 mps 728 mmHg 56%
    14:00 +17°C° 0 mm 4 mps 728 mmHg 54%
    15:00 +17°C° 0 mm 4 mps 727 mmHg 56%
    16:00 +17°C° 0 mm 3 mps 727 mmHg 58%
    17:00 +16°C° 0 mm 3 mps 727 mmHg 59%
    18:00 +14°C° 0 mm 3 mps 727 mmHg 64%
    19:00 +13°C° 0 mm 3 mps 727 mmHg 69%
    20:00 +13°C° 0 mm 2 mps 728 mmHg 74%
    21:00 +13°C° 0 mm 2 mps 728 mmHg 75%
    22:00 +12°C° 0 mm 2 mps 728 mmHg 76%
    23:00 +12°C° 0 mm 2 mps 728 mmHg 77%
    Show more